Wind_Speed
35 35 34 33 31 31 31 30 28 24 22 19 19 19 18 16 16 16 15 14 14 14 13 13 13 12 12 12 12 12 13 13 14 14 14 15 15 15 15 15 14 14 14 14
36 35 36 35 34 32 31 30 29 26 23 20 20 20 19 17 17 16 15 15 14 14 13 13 13 12 12 12 13 13 13 14 14 14 15 15 15 16 16 16 15 14 14 14
35 34 35 36 34 33 32 31 29 27 23 21 21 20 20 19 18 16 15 15 15 14 13 13 13 13 13 13 14 14 14 15 15 15 15 15 16 16 16 16 16 16 15 15
34 34 37 35 33 33 32 31 29 27 25 24 22 21 21 20 19 18 17 16 16 15 14 14 13 13 14 14 15 15 16 17 16 16 16 16 16 16 16 16 16 16 16 15
35 35 36 35 34 32 32 31 30 28 27 25 24 23 23 22 21 20 19 18 17 17 16 15 14 14 15 16 16 17 18 18 17 17 17 17 17 17 17 17 16 16 15 16
36 36 36 35 33 33 32 32 30 29 27 26 25 25 24 23 22 21 21 20 19 18 18 16 16 16 16 17 18 19 19 19 19 19 18 18 18 18 18 17 17 16 15 15
37 36 35 34 33 33 33 32 29 29 28 26 25 24 24 24 23 23 22 22 21 20 20 19 18 17 17 19 20 20 20 20 20 19 19 18 18 18 18 18 17 16 16 16
38 36 35 33 33 33 32 31 29 28 28 26 26 25 24 24 24 24 24 23 22 21 19 18 18 18 19 20 21 21 21 21 20 19 20 20 19 19 18 18 17 17 17 18
38 37 34 33 33 32 32 31 30 28 27 27 26 26 25 25 25 25 24 23 22 22 21 20 20 19 20 21 21 22 22 21 21 21 21 21 20 20 19 19 18 19 19 20
39 36 35 33 33 32 32 31 30 30 29 29 28 27 26 25 26 26 25 25 24 23 23 23 22 21 21 22 22 22 22 22 22 22 22 22 21 21 20 20 20 20 21 21
39 37 35 34 33 33 32 32 32 31 30 30 30 29 28 27 27 27 27 27 26 25 24 24 23 22 22 22 22 23 23 23 23 23 23 22 21 22 22 22 22 22 22 23
39 38 36 35 34 34 33 33 33 32 31 30 30 30 30 29 28 28 28 28 27 25 24 24 23 23 23 23 23 24 24 24 24 24 24 23 23 23 23 23 23 23 24 24
39 39 38 36 35 34 34 34 33 32 32 31 31 31 30 30 30 29 28 28 27 26 25 25 24 24 24 24 25 25 25 25 24 24 23 23 23 24 24 23 23 24 24 24
39 38 38 37 36 35 34 34 33 32 32 31 32 32 31 30 30 29 28 28 27 27 26 26 26 25 25 26 26 26 26 26 26 26 25 24 25 25 25 25 24 24 24 25
38 38 37 36 35 34 34 34 33 32 33 33 31 31 30 30 30 30 29 28 28 28 27 27 27 26 27 27 27 27 27 27 26 27 26 25 26 26 25 25 25 25 25 25
36 37 37 36 35 34 34 35 35 33 31 31 31 31 30 29 29 30 31 30 28 28 28 27 27 27 27 28 28 28 27 26 26 26 26 25 24 25 25 25 25 25 26 26
35 35 35 35 35 35 33 33 33 33 31 31 30 30 30 28 29 29 29 28 28 28 28 28 27 27 27 27 27 27 27 27 26 26 25 25 25 25 25 26 26 26 27 27
34 34 34 34 34 33 32 31 31 32 31 30 30 29 29 29 29 28 29 29 28 28 27 26 27 27 27 27 27 27 27 26 26 25 25 24 25 26 26 26 26 26 27 27
32 33 33 32 32 32 31 31 31 31 31 30 30 29 29 28 28 29 30 29 29 28 27 27 27 28 28 27 27 27 27 26 26 25 25 25 26 26 26 26 26 26 28 27
30 31 31 31 31 32 32 30 29 28 28 29 29 29 28 28 28 28 29 29 28 27 27 27 27 27 27 27 27 27 27 27 26 26 25 26 26 26 27 26 27 27 26 26
27 28 29 29 28 29 30 29 29 28 27 27 28 28 28 27 27 27 27 27 26 26 26 26 26 26 26 26 26 27 26 26 25 24 25 25 26 27 27 26 26 26 25 25
25 25 25 25 26 27 28 28 29 28 28 28 28 28 28 28 27 27 27 26 25 25 25 25 25 26 26 26 26 26 25 25 24 24 24 24 25 25 25 25 25 25 25 25
23 23 22 23 24 24 25 26 27 27 27 27 27 27 27 26 26 25 25 25 24 24 25 25 25 25 24 25 25 25 24 24 24 24 23 24 24 24 24 25 24 24 25 24
22 22 22 22 23 23 24 25 26 26 25 26 26 25 24 24 24 24 24 24 24 24 24 23 23 23 23 23 23 22 22 23 23 23 23 23 23 23 24 24 24 24 24 24
20 20 20 21 22 22 23 24 24 24 25 25 24 23 23 23 23 23 23 23 22 22 22 22 22 22 22 21 22 22 22 22 22 23 23 23 23 24 23 23 23 23 23 24
19 19 20 20 21 21 22 22 22 22 23 23 23 22 22 22 22 22 22 21 21 21 20 20 21 21 21 21 22 22 22 22 22 23 24 23 23 23 23 23 23 23 23 24
17 18 18 19 19 20 20 20 20 20 20 21 21 21 21 21 20 20 20 20 20 19 20 20 20 20 20 20 21 22 22 22 22 22 22 23 23 23 23 23 23 24 25 25
Wind_Direction
222 223 225 229 231 234 237 242 246 250 251 248 249 252 255 260 269 281 285 285 290 298 308 313 317 322 322 322 319 318 316 316 316 316 318 319 318 318 319 319 320 317 317 318
223 222 225 228 231 233 236 241 245 248 250 251 250 251 252 256 266 275 277 281 287 293 305 309 311 316 319 318 319 318 316 314 313 312 315 317 316 317 319 319 317 317 316 316
224 223 225 227 229 233 237 240 243 246 248 250 251 251 253 257 261 267 271 277 284 292 300 303 305 309 312 314 317 317 316 315 313 312 313 314 314 316 316 317 317 316 313 312
225 224 227 228 229 233 236 239 241 244 246 249 250 250 251 254 256 262 268 275 280 286 293 297 298 301 306 310 315 316 317 316 313 311 311 311 312 314 314 315 315 316 312 308
227 228 231 231 230 232 236 239 240 242 245 247 248 249 250 253 257 260 265 273 277 282 288 293 296 298 301 305 310 312 313 313 312 310 307 305 307 310 311 313 314 314 313 308
228 230 231 232 232 234 237 239 240 242 245 247 249 250 251 254 257 260 265 273 278 280 284 289 294 296 298 301 305 308 309 309 311 313 309 304 301 306 309 310 312 310 310 309
230 233 234 234 234 235 238 239 241 243 245 248 248 249 249 250 255 261 266 271 275 278 281 285 291 294 295 300 303 305 306 308 310 311 309 304 303 305 307 308 310 310 308 308
232 234 236 235 236 237 239 240 242 243 244 246 247 247 249 251 255 261 265 269 272 278 281 284 288 290 292 297 301 302 303 305 306 307 308 304 302 303 302 304 306 307 305 304
232 234 235 236 237 237 238 240 240 241 242 244 246 247 249 253 256 259 261 266 270 275 279 282 285 286 289 294 297 299 300 301 302 303 305 305 302 300 299 299 301 302 303 303
232 234 235 236 237 238 238 238 239 241 243 244 246 247 250 253 256 257 260 265 268 272 277 280 281 282 287 291 295 297 298 298 299 302 302 300 299 298 296 296 297 298 299 300
232 234 235 236 237 238 239 239 239 240 243 245 247 250 251 252 254 257 260 263 266 270 276 279 280 281 284 289 292 294 295 296 297 299 297 294 295 296 295 294 295 295 296 298
232 233 235 237 238 239 240 240 240 240 242 244 247 249 249 249 251 255 259 262 265 270 274 275 277 281 284 287 290 292 293 294 295 294 294 294 294 294 293 293 294 295 295 296
231 233 236 238 239 239 239 240 241 241 242 242 243 244 246 247 249 253 257 261 265 269 272 273 276 279 281 285 288 290 290 292 294 296 293 292 293 293 293 293 293 293 293 294
232 234 236 237 238 239 239 240 240 241 241 240 239 242 244 247 249 253 255 259 263 267 270 272 274 276 279 283 286 288 289 290 292 293 293 293 293 293 292 293 293 293 293 294
232 233 235 237 238 238 238 238 239 240 241 239 239 241 245 248 251 254 257 258 262 264 267 270 273 276 279 281 284 287 288 289 290 291 291 290 291 292 293 292 291 292 293 294
231 233 234 236 237 238 239 240 240 239 240 240 241 243 246 251 253 258 259 259 260 262 265 268 272 276 279 281 283 285 287 288 289 291 289 289 289 291 292 293 292 293 294 295
232 233 235 237 237 238 240 240 238 238 239 239 242 245 247 251 254 257 259 259 259 261 264 268 272 275 278 280 283 284 284 284 286 288 288 288 289 290 292 292 293 293 294 295
234 236 237 237 238 239 239 239 239 239 241 242 243 247 248 251 253 255 257 260 261 263 265 267 270 274 277 280 281 281 282 283 284 284 285 286 289 291 293 293 292 293 294 295
235 236 236 237 237 238 238 238 239 241 242 244 247 250 251 253 254 255 259 260 261 262 264 267 270 273 275 278 279 280 281 282 282 282 284 286 289 290 292 292 291 292 292 293
234 235 236 235 236 237 237 237 240 242 243 245 246 248 250 253 255 257 260 262 261 262 265 269 271 272 274 275 277 279 280 280 280 281 283 286 288 289 290 291 291 291 291 293
234 234 233 233 234 234 235 237 238 240 242 244 246 247 250 254 257 259 261 262 262 263 267 270 271 272 273 274 276 278 279 278 279 280 283 285 287 287 288 290 291 291 294 296
228 228 229 230 231 233 236 238 238 240 244 247 249 250 252 254 257 260 262 263 262 263 267 270 272 272 273 274 275 277 276 277 279 281 283 285 287 287 288 290 291 292 294 296
227 226 227 227 227 229 232 234 237 240 243 245 248 249 251 253 256 259 261 261 261 263 266 269 270 271 270 272 273 274 275 277 280 282 284 285 287 288 290 293 292 292 294 296
225 227 228 229 229 231 234 235 237 239 242 244 247 249 250 251 254 257 259 260 261 263 264 265 265 267 270 270 270 272 275 277 279 281 283 286 288 289 291 293 293 293 294 296
226 227 228 229 231 233 235 236 237 239 241 243 246 248 249 252 255 256 257 258 260 260 260 261 263 265 265 267 270 272 275 278 281 283 285 286 287 289 291 293 293 293 294 296
227 228 229 231 232 233 235 237 238 240 241 241 242 246 249 254 255 255 256 257 258 259 258 259 261 262 264 267 269 271 275 279 282 284 284 283 285 288 289 291 293 294 296 298
227 229 231 232 233 233 234 237 238 237 237 240 243 246 247 250 252 254 255 257 258 257 257 259 261 263 266 269 271 274 276 279 281 282 282 284 286 289 289 289 292 294 297 298
Height
5855 5861 5865 5869 5873 5877 5880 5884 5887 5890 5893 5896 5897 5899 5900 5901 5901 5901 5901 5901 5901 5901 5900 5899 5897 5896 5894 5893 5891 5890 5889 5887 5885 5884 5882 5880 5878 5876 5874 5872 5869 5867 5865 5863
5849 5854 5858 5862 5867 5871 5875 5878 5882 5885 5888 5891 5893 5894 5896 5897 5897 5898 5898 5898 5898 5898 5897 5896 5895 5893 5892 5891 5889 5888 5886 5885 5883 5881 5879 5877 5875 5873 5871 5869 5867 5864 5862 5861
5843 5848 5851 5855 5861 5865 5869 5873 5877 5880 5885 5886 5888 5890 5891 5893 5894 5894 5894 5894 5895 5894 5894 5893 5892 5891 5890 5888 5887 5885 5884 5881 5879 5878 5876 5874 5872 5870 5868 5866 5864 5862 5860 5858
5836 5842 5845 5853 5857 5860 5864 5868 5872 5875 5878 5881 5883 5885 5887 5888 5890 5890 5890 5891 5891 5891 5891 5890 5889 5888 5887 5885 5884 5883 5881 5879 5877 5875 5873 5871 5869 5867 5865 5863 5861 5859 5856 5854
5830 5834 5839 5846 5850 5854 5858 5862 5866 5869 5872 5875 5877 5879 5881 5883 5885 5886 5886 5887 5887 5887 5887 5886 5885 5884 5883 5882 5881 5880 5878 5876 5873 5871 5869 5868 5866 5864 5862 5860 5857 5855 5853 5851
5824 5828 5833 5840 5845 5848 5853 5856 5860 5863 5866 5869 5872 5874 5877 5879 5880 5881 5882 5882 5883 5882 5882 5882 5881 5880 5879 5878 5877 5876 5874 5872 5870 5867 5865 5864 5862 5860 5858 5856 5854 5852 5850 5848
5817 5822 5827 5833 5838 5843 5847 5851 5855 5857 5861 5863 5866 5869 5872 5873 5874 5875 5876 5877 5878 5878 5877 5878 5877 5876 5875 5874 5873 5872 5870 5868 5866 5864 5861 5859 5858 5856 5854 5853 5851 5848 5846 5845
5811 5816 5823 5827 5831 5836 5840 5844 5848 5851 5854 5857 5860 5863 5865 5867 5868 5870 5871 5872 5872 5872 5871 5872 5872 5871 5871 5870 5868 5867 5865 5863 5862 5860 5858 5856 5854 5852 5850 5849 5847 5845 5843 5841
5805 5812 5816 5820 5824 5829 5833 5837 5841 5844 5847 5850 5853 5856 5859 5861 5862 5864 5865 5866 5867 5867 5867 5867 5866 5866 5866 5865 5863 5862 5860 5859 5857 5855 5854 5852 5850 5848 5847 5845 5843 5841 5839 5837
5798 5804 5809 5813 5818 5822 5826 5830 5834 5837 5841 5844 5846 5849 5852 5854 5856 5858 5859 5860 5861 5862 5862 5861 5861 5860 5860 5859 5858 5857 5855 5854 5852 5850 5848 5847 5845 5843 5842 5840 5838 5837 5835 5833
5791 5797 5802 5807 5811 5815 5819 5823 5827 5830 5834 5837 5840 5842 5845 5847 5849 5851 5853 5854 5855 5856 5856 5856 5855 5855 5854 5853 5852 5851 5850 5848 5847 5845 5843 5841 5840 5838 5836 5835 5833 5832 5830 5828
5784 5790 5795 5800 5804 5808 5811 5815 5819 5823 5826 5829 5832 5835 5838 5840 5842 5844 5845 5847 5848 5849 5849 5849 5849 5849 5848 5847 5846 5845 5844 5842 5841 5839 5837 5836 5834 5832 5831 5829 5828 5826 5824 5822
5776 5782 5787 5792 5796 5800 5804 5807 5811 5815 5819 5822 5825 5828 5830 5833 5835 5837 5838 5840 5841 5841 5842 5842 5842 5842 5842 5841 5840 5839 5838 5836 5834 5832 5831 5829 5828 5826 5825 5824 5821 5819 5818 5816
5769 5774 5779 5783 5788 5792 5796 5799 5803 5807 5811 5814 5817 5820 5822 5825 5827 5829 5830 5831 5832 5834 5834 5835 5835 5835 5835 5834 5833 5832 5831 5830 5828 5826 5825 5823 5822 5820 5819 5817 5815 5813 5811 5809
5761 5766 5771 5775 5780 5784 5788 5791 5795 5799 5802 5806 5809 5811 5814 5817 5819 5820 5822 5823 5824 5826 5826 5826 5827 5827 5827 5826 5826 5825 5823 5822 5821 5819 5818 5817 5815 5813 5812 5810 5808 5806 5804 5802
5754 5758 5763 5768 5772 5776 5780 5783 5787 5791 5794 5798 5801 5803 5806 5808 5810 5812 5813 5814 5815 5817 5818 5819 5819 5819 5819 5819 5818 5817 5816 5815 5814 5812 5811 5810 5808 5806 5804 5802 5801 5799 5797 5795
5746 5751 5755 5760 5764 5768 5772 5775 5778 5782 5786 5790 5792 5795 5797 5800 5802 5804 5805 5806 5807 5808 5809 5810 5811 5811 5811 5811 5810 5809 5808 5807 5806 5805 5804 5803 5801 5799 5797 5795 5793 5792 5790 5787
5739 5744 5748 5752 5757 5760 5764 5767 5771 5775 5779 5781 5784 5787 5790 5792 5794 5796 5797 5798 5799 5800 5801 5802 5802 5803 5803 5802 5802 5801 5800 5799 5798 5797 5796 5795 5794 5792 5790 5788 5786 5784 5782 5780
5732 5736 5740 5745 5749 5753 5756 5760 5764 5767 5771 5774 5777 5779 5782 5784 5786 5787 5789 5790 5791 5792 5792 5793 5794 5794 5795 5794 5794 5793 5792 5791 5791 5790 5789 5787 5786 5785 5783 5781 5779 5777 5774 5772
5725 5729 5733 5737 5741 5745 5749 5753 5757 5760 5763 5766 5768 5771 5773 5775 5777 5779 5781 5781 5782 5783 5784 5785 5786 5786 5786 5786 5786 5785 5785 5784 5783 5782 5781 5780 5779 5777 5776 5774 5771 5769 5767 5765
5718 5722 5726 5729 5733 5737 5742 5746 5749 5753 5755 5758 5761 5763 5765 5767 5769 5771 5772 5773 5774 5775 5776 5777 5778 5778 5778 5778 5778 5777 5777 5776 5776 5775 5774 5772 5771 5770 5768 5766 5764 5762 5760 5758
5712 5716 5719 5723 5727 5731 5735 5738 5742 5745 5748 5751 5753 5755 5757 5759 5761 5763 5764 5765 5766 5767 5768 5769 5769 5770 5770 5770 5770 5770 5769 5769 5768 5767 5766 5765 5764 5762 5761 5759 5757 5755 5753 5751
5707 5711 5714 5718 5721 5725 5728 5732 5735 5738 5741 5743 5745 5748 5749 5751 5753 5754 5756 5757 5758 5759 5760 5761 5761 5762 5762 5762 5762 5762 5762 5762 5761 5760 5758 5757 5756 5755 5754 5752 5750 5748 5746 5744
5702 5705 5709 5712 5715 5719 5722 5725 5728 5731 5734 5736 5738 5740 5742 5744 5745 5747 5748 5750 5751 5751 5752 5753 5754 5754 5754 5754 5755 5755 5755 5754 5754 5753 5751 5750 5749 5748 5747 5745 5743 5741 5739 5737
5698 5701 5704 5707 5710 5713 5716 5719 5722 5724 5727 5729 5731 5733 5735 5737 5738 5740 5741 5742 5743 5744 5745 5746 5747 5747 5748 5748 5748 5748 5748 5747 5747 5746 5745 5744 5742 5741 5740 5738 5736 5734 5732 5730
5694 5697 5700 5702 5705 5707 5710 5713 5716 5718 5720 5723 5725 5727 5729 5730 5732 5733 5734 5735 5736 5737 5738 5739 5740 5741 5741 5741 5742 5741 5741 5741 5740 5739 5738 5737 5735 5734 5732 5731 5729 5727 5725 5723
5690 5692 5695 5698 5700 5702 5705 5707 5710 5712 5715 5717 5719 5721 5723 5724 5726 5727 5728 5729 5730 5731 5732 5733 5734 5734 5735 5735 5735 5735 5734 5734 5733 5732 5731 5730 5728 5727 5726 5724 5722 5720 5718 5716